Location: Newark
(40.3500°N, 15.2333°E)
Time: 16:56:54
(UTC+00:00)

Altair - Pass Details

Date: 27 January 2020
Orbit: 1502 x 1682 km, 47.2° (Epoch: 22 February)

Event Time Altitude Azimuth Distance (km) Brightness Sun altitude
Rises 09:01:25 0° 266° (W) 4,895 9.9 23.8°
Reaches altitude 10° 09:04:38 10° 270° (W) 3,923 9.4 24.1°
Maximum altitude 09:14:39 62° 350° (N) 1,861 8.0 25.1°
Drops below altitude 10° 09:24:42 10° 71° (ENE) 3,930 9.8 26.1°
Sets 09:27:55 0° 75° (ENE) 4,904 10.3 26.3°
